Location: Unspecified
(0.0000°N, 0.0000°E)
Time: 01:53:00
(UTC+00:00)

N. Korean satellite - Pass Details

Date: 20 March 2018
Orbit: 459 x 511 km, 97.2° (Epoch: 17 June)

Event Time Altitude Azimuth Distance (km) Brightness Sun altitude
Rises 17:35:27 0° 143° (SE) 2,518 9.8 8.0°
Reaches altitude 10° 17:37:58 10° 124° (SE) 1,648 8.8 7.4°
Maximum altitude 17:40:28 18° 79° (ENE) 1,226 8.1 6.7°
Drops below altitude 10° 17:43:00 10° 33° (NNE) 1,664 9.0 6.1°
Sets 19:18:10 0° 312° (NW) 2,547 11.0 -17.7°
